User: anonymous   Login
Location: Pleiades Observatory
(40.1297°N, 91.5238°W)
Time: 14:51:15
(UTC-06:00)
Language:

Cosmos 1842 Rocket - Orbit

View from above orbital plane
View from above orbital plane
View from above satellite
View from above satellite

Ground track
Ground track

The orbit data is extracted from the following two-line orbital elements,

1 17912U 87038B   15059.57585300  .00000408  00000-0  47488-4 0  9996
2 17912 082.5021 118.0003 0021858 113.6426 246.7086 14.82626443503304
Epoch (UTC): 28 February 2015 13:49:13
Eccentricity: 0.0021858
inclination: 82.5021°
perigee height: 606 km
apogee height: 636 km
right ascension of ascending node: 118.0003°
argument of perigee: 113.6426°
revolutions per day: 14.82626443
mean anomaly at epoch: 246.7086°
orbit number at epoch: 50330

The dashed part of the orbit path shows where the satellite is in the earth's shadow,  

DLR